THY2EG LTFM-LYBE

Flight info

Callsign THY2EG
Flight time N/A
Altitude 36000
Route VADEN1D/35L VADEN N618 BAKLO DCT XANEX DCT UTEKA DCT OSVIX
Aircraft B738/M-SDE2E3FGHIRWXY/LB1

Departure

Time 2026-05-05 19:14
Airport İstanbul Airport (LTFM)

Arrival

Time N/A
Airport Belgrade Nikola Tesla Airport (LYBE)
Time Latitude Longitude Altitude Speed Heading
2026-05-05 18:34 41.26558 28.73792 329 ft 0 kts 269°
2026-05-05 19:03 41.26558 28.73802 333 ft 4 kts 273°
2026-05-05 19:03 41.26553 28.73836 328 ft 4 kts 295°
2026-05-05 19:04 41.26539 28.73864 330 ft 4 kts 316°
2026-05-05 19:04 41.26518 28.73886 331 ft 4 kts 331°
2026-05-05 19:04 41.26493 28.73901 332 ft 4 kts 339°
2026-05-05 19:04 41.26477 28.73910 329 ft 0 kts 337°
2026-05-05 19:09 41.26490 28.73902 333 ft 6 kts 337°
2026-05-05 19:09 41.26550 28.73880 331 ft 12 kts 353°
2026-05-05 19:09 41.26650 28.73874 329 ft 17 kts 359°
2026-05-05 19:09 41.26776 28.73873 333 ft 20 kts 360°
2026-05-05 19:10 41.26922 28.73871 331 ft 22 kts 359°
2026-05-05 19:10 41.27013 28.73866 331 ft 2 kts 345°
2026-05-05 19:10 41.27042 28.73828 332 ft 12 kts 295°
2026-05-05 19:10 41.27047 28.73657 331 ft 25 kts 269°
2026-05-05 19:11 41.27043 28.73381 333 ft 34 kts 269°
2026-05-05 19:11 41.27041 28.73076 333 ft 19 kts 269°
2026-05-05 19:11 41.26997 28.72989 329 ft 7 kts 188°
2026-05-05 19:11 41.26940 28.72989 329 ft 11 kts 177°
2026-05-05 19:12 41.26838 28.72991 332 ft 14 kts 180°
2026-05-05 19:12 41.26739 28.72983 332 ft 13 kts 203°
2026-05-05 19:12 41.26714 28.72913 333 ft 8 kts 269°
2026-05-05 19:12 41.26711 28.72820 331 ft 13 kts 268°
2026-05-05 19:13 41.26711 28.72660 331 ft 21 kts 269°
2026-05-05 19:13 41.26745 28.72518 333 ft 7 kts 341°
2026-05-05 19:13 41.26845 28.72511 333 ft 43 kts 359°
2026-05-05 19:13 41.27459 28.72495 332 ft 131 kts 359°
2026-05-05 19:14 41.28580 28.72444 544 ft 184 kts 359°
2026-05-05 19:14 41.29943 28.72416 1333 ft 209 kts 359°
2026-05-05 19:14 41.31490 28.72351 1998 ft 237 kts 358°
2026-05-05 19:14 41.33241 28.72288 2648 ft 260 kts
2026-05-05 19:15 41.34993 28.72368 4158 ft 242 kts
2026-05-05 19:15 41.36667 28.72418 5222 ft 243 kts 355°
2026-05-05 19:15 41.38255 28.71621 6004 ft 251 kts 326°
2026-05-05 19:15 41.39472 28.69919 6856 ft 259 kts 308°
2026-05-05 19:16 41.40439 28.67874 7673 ft 263 kts 305°
2026-05-05 19:16 41.41378 28.65761 8485 ft 267 kts 304°
2026-05-05 19:16 41.42325 28.63612 9295 ft 271 kts 305°
2026-05-05 19:16 41.43289 28.61432 10100 ft 274 kts 305°
2026-05-05 19:17 41.44284 28.59200 10556 ft 291 kts 305°
2026-05-05 19:17 41.45367 28.56786 10736 ft 315 kts 305°
2026-05-05 19:17 41.46520 28.54215 11192 ft 328 kts 305°
2026-05-05 19:17 41.47697 28.51585 11865 ft 333 kts 304°
2026-05-05 19:18 41.48892 28.48914 12623 ft 337 kts 304°
2026-05-05 19:18 41.50085 28.46250 13354 ft 341 kts 304°
2026-05-05 19:18 41.51307 28.43522 14032 ft 345 kts 304°
2026-05-05 19:18 41.52546 28.40754 14679 ft 349 kts 304°
2026-05-05 19:19 41.53797 28.37958 15336 ft 353 kts 304°
2026-05-05 19:19 41.55062 28.35131 15983 ft 356 kts 304°
2026-05-05 19:19 41.56339 28.32273 16615 ft 360 kts 304°
2026-05-05 19:19 41.57630 28.29382 17248 ft 364 kts 303°
2026-05-05 19:20 41.58863 28.26404 17883 ft 369 kts 300°
2026-05-05 19:20 41.60026 28.23324 18496 ft 373 kts 299°
2026-05-05 19:20 41.61179 28.20193 19030 ft 377 kts 299°
2026-05-05 19:20 41.62343 28.17043 19573 ft 380 kts 299°
2026-05-05 19:21 41.63527 28.13864 20110 ft 383 kts 299°
2026-05-05 19:21 41.64728 28.10666 20634 ft 386 kts 299°
2026-05-05 19:21 41.65939 28.07451 21169 ft 389 kts 299°
2026-05-05 19:21 41.67163 28.04198 21687 ft 393 kts 299°
2026-05-05 19:22 41.68474 28.00982 22186 ft 395 kts 303°
2026-05-05 19:22 41.69941 27.97861 22695 ft 397 kts 305°
2026-05-05 19:22 41.71472 27.94765 23189 ft 400 kts 306°
2026-05-05 19:22 41.73026 27.91655 23672 ft 404 kts 306°
2026-05-05 19:23 41.74582 27.88520 24077 ft 406 kts 305°
2026-05-05 19:23 41.76143 27.85343 24506 ft 408 kts 305°
2026-05-05 19:23 41.77695 27.82153 24914 ft 411 kts 305°
2026-05-05 19:23 41.79254 27.78928 25303 ft 414 kts 304°
2026-05-05 19:24 41.80820 27.75676 25687 ft 416 kts 304°
2026-05-05 19:24 41.82392 27.72402 26075 ft 419 kts 304°
2026-05-05 19:24 41.83975 27.69099 26436 ft 422 kts 304°
2026-05-05 19:24 41.85564 27.65782 26791 ft 425 kts 304°
2026-05-05 19:25 41.87164 27.62438 27145 ft 427 kts 304°
2026-05-05 19:25 41.88752 27.59115 27498 ft 429 kts 304°
2026-05-05 19:25 41.90366 27.55732 27851 ft 432 kts 304°
2026-05-05 19:25 41.91986 27.52336 28190 ft 434 kts 304°
2026-05-05 19:26 41.93620 27.48907 28519 ft 437 kts 304°
2026-05-05 19:26 41.95260 27.45461 28830 ft 439 kts 303°
2026-05-05 19:26 41.96906 27.41998 29149 ft 441 kts 303°
2026-05-05 19:26 41.98562 27.38509 29454 ft 444 kts 303°
2026-05-05 19:27 42.00225 27.35001 29760 ft 446 kts 303°
2026-05-05 19:27 42.01891 27.31484 30175 ft 445 kts 303°
2026-05-05 19:27 42.03549 27.27980 30552 ft 444 kts 303°
2026-05-05 19:27 42.05203 27.24480 30878 ft 443 kts 303°
2026-05-05 19:28 42.06879 27.21009 31232 ft 442 kts 307°
2026-05-05 19:28 42.08809 27.17814 31628 ft 438 kts 313°
2026-05-05 19:28 42.10648 27.15072 32013 ft 435 kts 314°
2026-05-05 19:28 42.12707 27.12097 32378 ft 434 kts 314°
2026-05-05 19:29 42.14762 27.09130 32708 ft 433 kts 314°
2026-05-05 19:29 42.16802 27.06148 33059 ft 432 kts 314°
2026-05-05 19:29 42.18825 27.03153 33425 ft 430 kts 314°
2026-05-05 19:29 42.20819 27.00169 33789 ft 428 kts 313°
2026-05-05 19:30 42.22806 26.97177 34121 ft 427 kts 313°
2026-05-05 19:30 42.24780 26.94193 34403 ft 426 kts 313°
2026-05-05 19:30 42.26747 26.91213 34651 ft 425 kts 313°
2026-05-05 19:30 42.28709 26.88239 34906 ft 424 kts 313°
2026-05-05 19:31 42.30673 26.85259 35176 ft 423 kts 313°
2026-05-05 19:31 42.32601 26.82331 35410 ft 423 kts 313°
2026-05-05 19:31 42.34578 26.79327 35601 ft 423 kts 313°
2026-05-05 19:31 42.36536 26.76349 35837 ft 423 kts 313°
2026-05-05 19:32 42.38458 26.73422 36044 ft 422 kts 313°
2026-05-05 19:32 42.40418 26.70436 36021 ft 426 kts 313°
2026-05-05 19:32 42.44347 26.64439 36023 ft 425 kts 313°
2026-05-05 19:33 42.48237 26.58488 36036 ft 423 kts 313°
2026-05-05 19:33 42.52166 26.52469 36036 ft 430 kts 313°
2026-05-05 19:34 42.55735 26.45864 36032 ft 441 kts 301°
2026-05-05 19:35 42.60080 26.34725 36026 ft 449 kts 300°
2026-05-05 19:35 42.62996 26.27206 36022 ft 451 kts 300°
2026-05-05 19:36 42.65944 26.19673 36017 ft 452 kts 300°
2026-05-05 19:36 42.68397 26.13420 36013 ft 451 kts 300°
2026-05-05 19:37 42.71344 26.05893 36023 ft 451 kts 300°
2026-05-05 19:37 42.74284 25.98366 36015 ft 450 kts 300°
2026-05-05 19:38 42.77212 25.90847 36016 ft 449 kts 300°
2026-05-05 19:38 42.80127 25.83339 36018 ft 448 kts 300°
2026-05-05 19:39 42.83030 25.75846 36012 ft 447 kts 300°
2026-05-05 19:39 42.85922 25.68361 36010 ft 446 kts 300°
2026-05-05 19:40 42.88798 25.60895 36011 ft 444 kts 300°
2026-05-05 19:40 42.91662 25.53442 36020 ft 443 kts 300°
2026-05-05 19:41 42.94520 25.45988 36008 ft 443 kts 300°
2026-05-05 19:41 42.97367 25.38539 36019 ft 442 kts 300°
2026-05-05 19:42 43.00210 25.31082 36005 ft 442 kts 300°
2026-05-05 19:42 43.03043 25.23632 36012 ft 442 kts 300°
2026-05-05 19:43 43.05869 25.16181 36020 ft 441 kts 300°
2026-05-05 19:43 43.08667 25.08784 36009 ft 441 kts 300°
2026-05-05 19:44 43.11482 25.01328 36012 ft 441 kts 300°
2026-05-05 19:44 43.14195 24.93732 36006 ft 442 kts 296°
2026-05-05 19:45 43.16617 24.86049 36011 ft 442 kts 295°
2026-05-05 19:45 43.19019 24.78291 36002 ft 442 kts 296°
2026-05-05 19:46 43.21437 24.70551 36008 ft 442 kts 296°
2026-05-05 19:46 43.23867 24.62818 36001 ft 441 kts 296°
2026-05-05 19:47 43.26296 24.55085 36004 ft 441 kts 296°
2026-05-05 19:47 43.28717 24.47353 36003 ft 441 kts 296°
2026-05-05 19:48 43.31132 24.39618 35999 ft 441 kts 296°
2026-05-05 19:48 43.33538 24.31888 35996 ft 440 kts 295°
2026-05-05 19:49 43.35938 24.24153 35993 ft 440 kts 295°
2026-05-05 19:49 43.38333 24.16411 35995 ft 440 kts 295°
2026-05-05 19:50 43.40720 24.08673 35994 ft 439 kts 295°
2026-05-05 19:50 43.43100 24.00934 35995 ft 439 kts 295°
2026-05-05 19:51 43.45474 23.93192 35991 ft 439 kts 295°
2026-05-05 19:51 43.47840 23.85453 35995 ft 439 kts 295°
2026-05-05 19:52 43.50203 23.77699 35990 ft 439 kts 295°
2026-05-05 19:52 43.52560 23.69943 35991 ft 439 kts 295°
2026-05-05 19:53 43.54897 23.62230 35994 ft 439 kts 294°
2026-05-05 19:53 43.57247 23.54449 35990 ft 439 kts 294°
2026-05-05 19:54 43.59586 23.46680 35991 ft 439 kts 294°
2026-05-05 19:54 43.61923 23.38898 35991 ft 439 kts 294°
2026-05-05 19:55 43.64253 23.31113 35989 ft 439 kts 294°
2026-05-05 19:55 43.66578 23.23320 35991 ft 438 kts 294°
2026-05-05 19:56 43.68897 23.15525 35989 ft 438 kts 294°
2026-05-05 19:56 43.71207 23.07738 35987 ft 438 kts 294°
2026-05-05 19:57 43.73513 22.99938 35985 ft 438 kts 294°
2026-05-05 19:57 43.75812 22.92137 35987 ft 438 kts 294°
2026-05-05 19:58 43.78107 22.84329 35982 ft 438 kts 293°
2026-05-05 19:58 43.80396 22.76516 35978 ft 438 kts 293°
2026-05-05 19:59 43.82679 22.68697 35982 ft 438 kts 293°
2026-05-05 19:59 43.84957 22.60871 35975 ft 438 kts 293°
2026-05-05 20:00 43.87229 22.53045 35976 ft 438 kts 293°
2026-05-05 20:00 43.89480 22.45267 35970 ft 438 kts 293°
2026-05-05 20:01 43.91802 22.37473 35975 ft 437 kts 296°
2026-05-05 20:01 43.94524 22.29949 35938 ft 437 kts 298°
2026-05-05 20:01 43.95934 22.26197 35676 ft 435 kts 298°
2026-05-05 20:02 43.97304 22.22539 35627 ft 420 kts 298°
2026-05-05 20:02 43.98612 22.19018 35517 ft 401 kts 298°
2026-05-05 20:02 43.99861 22.15629 35262 ft 388 kts 298°
2026-05-05 20:02 44.01076 22.12317 34721 ft 382 kts 298°
2026-05-05 20:03 44.02273 22.09038 34101 ft 380 kts 298°
2026-05-05 20:03 44.03460 22.05781 33456 ft 376 kts 298°
2026-05-05 20:03 44.04626 22.02574 32940 ft 369 kts 298°
2026-05-05 20:03 44.05770 21.99421 32527 ft 360 kts 298°
2026-05-05 20:04 44.06883 21.96350 32151 ft 351 kts 298°
2026-05-05 20:04 44.07964 21.93365 31806 ft 342 kts 298°
2026-05-05 20:04 44.09033 21.90412 31484 ft 343 kts 298°
2026-05-05 20:04 44.10118 21.87417 31167 ft 352 kts 298°
2026-05-05 20:05 44.11237 21.84322 30828 ft 363 kts 298°
2026-05-05 20:05 44.12360 21.81209 30437 ft 357 kts 298°
2026-05-05 20:05 44.13465 21.78138 29794 ft 355 kts 298°
2026-05-05 20:05 44.14576 21.75050 28962 ft 357 kts 298°
2026-05-05 20:06 44.15690 21.71951 28149 ft 358 kts 298°
2026-05-05 20:06 44.16807 21.68840 27362 ft 359 kts 297°
2026-05-05 20:06 44.17924 21.65726 26589 ft 360 kts 297°
2026-05-05 20:06 44.19041 21.62608 25850 ft 360 kts 297°
2026-05-05 20:07 44.20162 21.59475 25124 ft 361 kts 297°
2026-05-05 20:07 44.21278 21.56350 24414 ft 361 kts 297°
2026-05-05 20:07 44.22397 21.53217 23725 ft 361 kts 297°
2026-05-05 20:07 44.23515 21.50081 22940 ft 361 kts 297°
2026-05-05 20:08 44.24631 21.46950 22135 ft 361 kts 296°
2026-05-05 20:08 44.25805 21.43860 21363 ft 360 kts 299°
2026-05-05 20:08 44.27039 21.40864 20611 ft 360 kts 300°
2026-05-05 20:08 44.28307 21.37859 19873 ft 359 kts 300°
2026-05-05 20:09 44.29573 21.34865 19149 ft 358 kts 300°
2026-05-05 20:09 44.30832 21.31872 18442 ft 357 kts 300°
2026-05-05 20:09 44.32080 21.28885 17677 ft 356 kts 299°
2026-05-05 20:09 44.33320 21.25900 16885 ft 355 kts 299°
2026-05-05 20:10 44.34553 21.22920 16118 ft 354 kts 299°
2026-05-05 20:10 44.35780 21.19946 15376 ft 353 kts 299°
2026-05-05 20:10 44.36193 21.18942 15132 ft 352 kts 299°
2026-05-05 20:11 44.36917 21.17182 14695 ft 352 kts 299°
2026-05-05 20:11 44.38149 21.14186 13972 ft 351 kts 299°
2026-05-05 20:11 44.39342 21.11278 13377 ft 346 kts 299°
2026-05-05 20:12 44.40510 21.08429 13187 ft 329 kts 299°
2026-05-05 20:12 44.41619 21.05724 13031 ft 312 kts 299°
2026-05-05 20:12 44.42673 21.03148 12938 ft 301 kts 299°
2026-05-05 20:12 44.43706 21.00621 12956 ft 299 kts 298°
2026-05-05 20:13 44.44744 20.98077 12958 ft 303 kts 298°
2026-05-05 20:13 44.45798 20.95490 12743 ft 308 kts 298°
2026-05-05 20:13 44.46856 20.92892 12328 ft 307 kts 298°
2026-05-05 20:13 44.47915 20.90291 11817 ft 306 kts 298°
2026-05-05 20:14 44.48963 20.87716 11320 ft 303 kts 298°
2026-05-05 20:14 44.50000 20.85166 10828 ft 300 kts 298°
2026-05-05 20:14 44.51022 20.82649 10437 ft 293 kts 298°
2026-05-05 20:14 44.52016 20.80200 10117 ft 285 kts 298°
2026-05-05 20:15 44.52982 20.77817 9796 ft 278 kts 298°
2026-05-05 20:15 44.53930 20.75477 9459 ft 275 kts 298°
2026-05-05 20:15 44.54805 20.73315 9141 ft 274 kts 298°
2026-05-05 20:15 44.55743 20.70995 8817 ft 273 kts 298°
2026-05-05 20:16 44.56681 20.68675 8490 ft 273 kts 298°
2026-05-05 20:16 44.57617 20.66356 8170 ft 273 kts 298°
2026-05-05 20:16 44.58553 20.64033 7845 ft 274 kts 298°
2026-05-05 20:16 44.59491 20.61708 7532 ft 274 kts 297°
2026-05-05 20:17 44.60430 20.59376 7214 ft 274 kts 297°
2026-05-05 20:17 44.61363 20.57056 7035 ft 276 kts 297°
2026-05-05 20:17 44.62315 20.54688 7014 ft 280 kts 297°
2026-05-05 20:17 44.63262 20.52331 6990 ft 276 kts 297°
2026-05-05 20:18 44.64197 20.50001 6981 ft 272 kts 297°
2026-05-05 20:18 44.65127 20.47684 6992 ft 273 kts 297°
2026-05-05 20:18 44.66062 20.45348 6995 ft 275 kts 297°
2026-05-05 20:18 44.67002 20.43000 6995 ft 276 kts 297°
2026-05-05 20:19 44.67931 20.40677 6996 ft 276 kts 297°
2026-05-05 20:19 44.68886 20.38289 7004 ft 277 kts 297°
2026-05-05 20:19 44.69830 20.35924 6991 ft 278 kts 297°
2026-05-05 20:19 44.70765 20.33583 6822 ft 279 kts 297°
2026-05-05 20:20 44.71711 20.31209 6580 ft 277 kts 297°
2026-05-05 20:20 44.72646 20.28862 6338 ft 274 kts 297°
2026-05-05 20:20 44.73573 20.26535 6083 ft 271 kts 297°
2026-05-05 20:20 44.74488 20.24234 5837 ft 268 kts 297°
2026-05-05 20:21 44.75395 20.21953 5587 ft 266 kts 297°
2026-05-05 20:21 44.76292 20.19694 5338 ft 264 kts 297°
2026-05-05 20:21 44.77183 20.17447 5104 ft 261 kts 297°
2026-05-05 20:21 44.78057 20.15242 5012 ft 257 kts 297°
2026-05-05 20:22 44.78923 20.13056 5000 ft 254 kts 297°
2026-05-05 20:22 44.79780 20.10890 4994 ft 253 kts 297°
2026-05-05 20:22 44.80641 20.08712 4909 ft 259 kts 297°
2026-05-05 20:22 44.81532 20.06455 4587 ft 264 kts 297°
2026-05-05 20:23 44.82418 20.04211 4342 ft 261 kts 297°
2026-05-05 20:23 44.83294 20.01992 4086 ft 258 kts 297°
2026-05-05 20:23 44.84159 19.99801 3840 ft 255 kts 297°
2026-05-05 20:23 44.85015 19.97627 3587 ft 252 kts 297°
2026-05-05 20:24 44.85863 19.95473 3342 ft 250 kts 297°
2026-05-05 20:24 44.86703 19.93340 3108 ft 247 kts 296°
2026-05-05 20:24 44.87550 19.91237 3041 ft 255 kts 298°
2026-05-05 20:24 44.88402 19.88880 3035 ft 278 kts 297°
2026-05-05 20:25 44.89654 19.86869 2983 ft 272 kts 323°
2026-05-05 20:25 44.91380 19.85938 2979 ft 266 kts 350°
2026-05-05 20:25 44.93184 19.86274 2981 ft 262 kts 20°
2026-05-05 20:25 44.94603 19.87742 2986 ft 255 kts 50°
2026-05-05 20:26 44.95352 19.89937 3010 ft 248 kts 72°
2026-05-05 20:26 44.95739 19.92310 2989 ft 249 kts 82°
2026-05-05 20:26 44.95910 19.94732 2988 ft 248 kts 85°
2026-05-05 20:26 44.96011 19.97156 2975 ft 247 kts 96°
2026-05-05 20:27 44.95484 19.99354 3007 ft 242 kts 118°
2026-05-05 20:27 44.94711 20.01449 3003 ft 240 kts 122°
2026-05-05 20:27 44.93888 20.03414 2981 ft 225 kts 124°
2026-05-05 20:27 44.93088 20.05219 2983 ft 209 kts 125°
2026-05-05 20:28 44.92331 20.06910 2993 ft 201 kts 125°
2026-05-05 20:28 44.91585 20.08573 3027 ft 198 kts 125°
2026-05-05 20:28 44.90870 20.10177 2991 ft 188 kts 125°
2026-05-05 20:28 44.90214 20.11653 2984 ft 167 kts 126°
2026-05-05 20:29 44.89610 20.13008 2969 ft 161 kts 126°
2026-05-05 20:29 44.89013 20.14345 2825 ft 162 kts 126°
2026-05-05 20:29 44.88416 20.15683 2616 ft 160 kts 126°
2026-05-05 20:29 44.87844 20.16968 2412 ft 160 kts 126°
2026-05-05 20:30 44.87253 20.18294 2208 ft 160 kts 126°
2026-05-05 20:30 44.86657 20.19630 1997 ft 161 kts 125°
2026-05-05 20:30 44.86062 20.20971 1785 ft 161 kts 125°
2026-05-05 20:30 44.85472 20.22298 1566 ft 159 kts 124°
2026-05-05 20:31 44.84906 20.23570 1365 ft 159 kts 124°